Regional Weather Roundup
Issued by NWS

Home | Current Version | Previous Version | Graphics & Text | Print | Product List | Glossary Off
Versions: 1 2 3 4 5 6 7 8 9 10 11 12 13 14 15 16 17 18 19 20 21 22 23 24 25 26 27 28 29 30 31 32 33 34 35 36 37 38 39 40 41 42 43 44 45 46 47 48 49 50

405
ASUS43 KDTX 251901
RWRMI
MICHIGAN HOURLY REGIONAL WEATHER ROUNDUP
NATIONAL WEATHER SERVICE DETROIT/PONTIAC MI
300 PM EDT SUN SEP 25 2016

NOTE: "FAIR" INDICATES FEW OR NO CLOUDS BELOW 12,000 FEET WITH NO
SIGNIFICANT WEATHER AND/OR OBSTRUCTION TO VISIBILITY.

MIZ047>049-052>055-059>063-066>070-074>076-081>083-252000-
SOUTHEAST LOWER MICHIGAN

CITY           SKY/WX    TMP DP  RH WIND       PRES   REMARKS
ADRIAN         SUNNY     75  41  29 NE6       30.13F
ALMA           CLOUDY    72  56  57 SW8       30.11F
ANN ARBOR      MOSUNNY   72  51  47 VRB7      30.13F
BAD AXE        PTSUNNY   69  52  53 S12       30.14F
CARO           SUNNY     71  54  54 SE8       30.12F
DETROIT CITY   SUNNY     70  48  45 E10       30.15F
DETROIT        PTSUNNY   72  50  45 SE8       30.14F
FLINT          SUNNY     72  54  53 S10G17    30.13F
GROSSE ILE     SUNNY     72  44  37 SE6       30.13F
HILLSDALE      CLOUDY    73  45  35 SE3       30.12F
HOWELL         MOSUNNY   72  53  52 SE10      30.13F

CITY           SKY/WX    TMP DP  RH WIND       PRES   REMARKS
LAMBERTVILLE   SUNNY     73  50  45 E5        30.13F
LANSING        CLOUDY    73  51  46 SE13      30.11F
LAPEER         FAIR      71  49  45 S12       30.14F
MASON          CLOUDY    72  51  48 SE10      30.12F
PONTIAC        CLOUDY    71  48  43 S10       30.13F
PORT HOPE        N/A     66  54  65 SE16      30.13F
TRI CITIES     SUNNY     72  54  53 SE12      30.12F
MIDLAND        FAIR      71  53  52 SE9       30.10F
TROY           SUNNY     73  44  35 E10       30.16F
SAGINAW HB     SUNNY     72  52  49 S9        30.11F
$$
MIZ043>046-050>051-056>058-064>065-071>073-077>080-252000-
SOUTHWEST LOWER MICHIGAN

CITY           SKY/WX    TMP DP  RH WIND       PRES   REMARKS
BATTLE CREEK   SUNNY     75  52  44 S9        30.10F
BENTON HARBOR  SUNNY     80  62  54 SE10      30.03F
BIG RAPIDS     MOSUNNY   72  58  60 SE10      30.07F
COLDWATER      SUNNY     74  53  47 SE8       30.10F
FREMONT        FAIR      71  56  58 SE8       30.05F
HOLLAND        SUNNY     75  61  61 SE13      30.05F
GRAND RAPIDS   PTSUNNY   74  56  53 SE12      30.08F
IONIA          FAIR      73  50  44 SE12      30.08F
KALAMAZOO      SUNNY     77  53  43 SE8       30.08F
LUDINGTON      MOSUNNY   73  60  65 SE12G21   30.01F
MARSHALL       MOSUNNY   74  50  41 SE7       30.10F
MUSKEGON       PTSUNNY   75  60  59 SE10      30.04F
SOUTH HAVEN    SUNNY     79  62  56 SE9       30.04F
$$
MIZ016>042-252000-
NORTHERN LOWER MICHIGAN

CITY           SKY/WX    TMP DP  RH WIND       PRES   REMARKS
ALPENA         CLOUDY    69  48  47 E14       30.11F
BEAVER ISLAND  CLOUDY    68  55  64 SE14      30.03F
BELLAIRE       CLOUDY    74  53  48 S9        30.04F
CADILLAC       PTSUNNY   70  55  59 SE9G18    30.07F
CHARLEVOIX     CLOUDY    71  53  52 SE10      30.05F
FRANKFORT      CLOUDY    73  58  58 SE12G17   30.00F
GAYLORD        CLOUDY    69  49  48 SE12      30.08F
GRAYLING       PTSUNNY   71  51  48 SE8       30.09F
HARBOR SPRINGS MOSUNNY   71  53  54 E8        30.04F
HOUGHTON LAKE  CLOUDY    69  52  54 S10       30.10F
MANISTEE       PTSUNNY   73  59  61 SE15      30.00F
OSCODA         MOSUNNY   68  50  52 S15G22    30.13F
PELLSTON       MOSUNNY   68  51  54 E14G22    30.06F
ROGERS CITY    CLOUDY    70  47  44 SE10      30.10F
TRAVERSE CITY  CLOUDY    75  56  51 SE8       30.02F
$$
MIZ007>008-015-252000-
EASTERN UPPER MICHIGAN

CITY           SKY/WX    TMP DP  RH WIND       PRES   REMARKS
KINROSS        MOSUNNY   65  51  60 SE21      30.06F
NEWBERRY       PTSUNNY   66  54  63 SE14      30.04F
S. S. MARIE    CLOUDY    66  50  56 SE13      30.07F
MUNISING         N/A     67  58  72 S9G23     29.95F
$$
MIZ004>006-011>014-085-252000-
CENTRAL UPPER MICHIGAN

CITY           SKY/WX    TMP DP  RH WIND       PRES   REMARKS
MANISTIQUE     CLOUDY    64  57  78 SE13G18   30.01F
ESCANABA       CLOUDY    65  60  84 SE10      29.96F
MENOMINEE      CLOUDY    69  63  81 S12G23    29.93F
SAWYER-GWINN   LGT RAIN  61  59  94 S14G20    29.95F
$$
MIZ001>003-009>011-084-252000-
WESTERN UPPER MICHIGAN

CITY           SKY/WX    TMP DP  RH WIND       PRES   REMARKS
IRON MOUNTAIN  RAIN      63  60  90 SE12G20   29.91F FOG
HOUGHTON       LGT RAIN  63  61  93 SE10      29.85F FOG
COPPER HARBOR    N/A     64  61  90 S12G24    29.85F
IRONWOOD       CLOUDY    66  63  90 S15       29.81
$$

ABBREVIATIONS USED IN REMARKS
   TC - TEMPERATURE IN CELSIUS
  WCI - WIND CHILL INDEX
   HX - HEAT INDEX
  VSB - VISIBILITY





USA.gov is the U.S. government's official web portal to all federal, state and local government web resources and services.